Edinburgh Airport, United Kingdom

6:09 AM GMT on December 16, 2017 (GMT +0000)
Edinburgh Airport

Weather History for EGPH - October, 2013

Change the Weather History Date:

Wednesday, October 30, 2013

  Actual Average Record
Temperature  
Mean Temperature 46 °F -  
Max Temperature 53 °F 48 °F 62 °F (1999)
Min Temperature 39 °F 36 °F 28 °F (2003)
Degree Days  
Heating Degree Days 19    
Moisture  
Dew Point 43 °F    
Average Humidity 86    
Maximum Humidity 100    
Minimum Humidity 71    
Precipitation  
Precipitation 0.00 in 0.08 in - ()
Sea Level Pressure  
Sea Level Pressure 29.79 in    
Wind  
Wind Speed 10 mph ()    
Max Wind Speed 20 mph    
Max Gust Speed 30 mph    
Visibility 6.1 miles    
Events Rain    
Averages and records for this station are not official NWS values.
T = Trace of Precipitation, MM = Missing Value Source: Averaged Metar Reports

Daily Weather History Graph

Daily Weather History Graph

Search for Another Location

Airport or City:

Trip Planner

Search our weather history database for the weather conditions in past years. The results will help you decide how hot, cold, wet, or windy it might be!

Date:

Astronomy

Oct. 30, 2013 Rise Set
Actual Time 7:16 AM GMT 4:37 PM GMT
Civil Twilight 6:36 AM GMT 5:16 PM GMT
Nautical Twilight 5:52 AM GMT 6:00 PM GMT
Astronomical Twilight 5:09 AM GMT 6:43 PM GMT
Moon 2:06 AM GMT (10/30) 2:53 PM GMT (10/30)
Length of Visible Light 10h 39m
Length of Day
9h 20m
Waning Crescent, 18% of the Moon is Illuminated
Oct 30
Waning Crescent
Nov 3
New
Nov 10
First Quarter
Nov 17
Full
Nov 25
Last Quarter

Hourly Weather History & Observations

Time (GMT) Temp. Windchill Dew Point Humidity Pressure Visibility Wind Dir Wind Speed Gust Speed Precip Events Conditions
12:20 AM 42.8 °F 36.2 °F 39.2 °F 87% 29.86 in - WSW 12.7 mph - N/A   Clear
12:50 AM 42.8 °F 35.8 °F 39.2 °F 87% 29.86 in - WSW 13.8 mph - N/A   Clear
1:20 AM 41.0 °F 34.3 °F 39.2 °F 93% 29.86 in - WSW 11.5 mph - N/A   Clear
1:50 AM 41.0 °F 35.2 °F 37.4 °F 87% 29.89 in - WSW 9.2 mph - N/A   Clear
2:20 AM 41.0 °F 35.2 °F 39.2 °F 93% 29.89 in - WSW 9.2 mph - N/A   Clear
2:50 AM 41.0 °F 35.2 °F 39.2 °F 93% 29.89 in 6.2 mi WSW 9.2 mph - N/A   Unknown
3:20 AM 41.0 °F 35.8 °F 39.2 °F 93% 29.89 in 6.2 mi WSW 8.1 mph - N/A   Scattered Clouds
3:50 AM 41.0 °F 35.2 °F 39.2 °F 93% 29.89 in 6.2 mi WSW 9.2 mph - N/A   Partly Cloudy
4:20 AM 41.0 °F 36.4 °F 37.4 °F 87% 29.89 in - WSW 6.9 mph - N/A   Clear
4:50 AM 41.0 °F 35.8 °F 39.2 °F 93% 29.89 in - WSW 8.1 mph - N/A   Clear
5:20 AM 41.0 °F 38.0 °F 39.2 °F 93% 29.89 in 6.2 mi WSW 4.6 mph - N/A   Partly Cloudy
5:50 AM 39.2 °F - 39.2 °F 100% 29.89 in 6.2 mi Variable 2.3 mph - N/A   Unknown
6:20 AM 41.0 °F 39.0 °F 39.2 °F 93% 29.89 in 6.2 mi Variable 3.5 mph - N/A   Partly Cloudy
6:50 AM 42.8 °F 39.3 °F 41.0 °F 93% 29.89 in 6.2 mi West 5.8 mph - N/A   Scattered Clouds
7:20 AM 42.8 °F 40.1 °F 39.2 °F 87% 29.89 in 6.2 mi West 4.6 mph - N/A   Partly Cloudy
7:50 AM 42.8 °F 41.1 °F 39.2 °F 87% 29.89 in 6.2 mi Variable 3.5 mph - N/A   Partly Cloudy
8:20 AM 44.6 °F 40.2 °F 41.0 °F 87% 29.89 in 6.2 mi SSW 8.1 mph - N/A   Partly Cloudy
8:50 AM 46.4 °F 41.1 °F 41.0 °F 81% 29.89 in - SW 11.5 mph - N/A   Clear
9:20 AM 46.4 °F 41.5 °F 41.0 °F 81% 29.89 in - SW 10.4 mph - N/A   Clear
9:50 AM 48.2 °F - 42.8 °F 82% 29.86 in - SW 8.1 mph - N/A   Clear
10:20 AM 50.0 °F - 42.8 °F 76% 29.86 in - SW 11.5 mph - N/A   Clear
10:50 AM 50.0 °F - 42.8 °F 76% 29.83 in - SSW 17.3 mph - N/A   Clear
11:20 AM 51.8 °F - 42.8 °F 71% 29.83 in - South 16.1 mph - N/A   Clear
11:50 AM 51.8 °F - 42.8 °F 71% 29.80 in - South 16.1 mph 27.6 mph N/A   Clear
12:20 PM 53.6 °F - 44.6 °F 72% 29.77 in 6.2 mi SSW 13.8 mph - N/A   Scattered Clouds
12:50 PM 53.6 °F - 44.6 °F 72% 29.77 in 6.2 mi SSW 15.0 mph - N/A   Scattered Clouds
1:20 PM 53.6 °F - 44.6 °F 72% 29.74 in 6.2 mi SSW 16.1 mph - N/A   Mostly Cloudy
1:50 PM 53.6 °F - 46.4 °F 77% 29.74 in 6.2 mi SSW 17.3 mph - N/A   Mostly Cloudy
2:20 PM 53.6 °F - 46.4 °F 77% 29.68 in 6.2 mi SSW 19.6 mph - N/A   Scattered Clouds
2:50 PM 53.6 °F - 48.2 °F 82% 29.68 in 6.2 mi SSW 18.4 mph 29.9 mph N/A   Scattered Clouds
3:20 PM 53.6 °F - 48.2 °F 82% 29.65 in 5.0 mi SSW 17.3 mph - N/A Rain Light Rain
3:50 PM 51.8 °F - 48.2 °F 88% 29.62 in 5.0 mi South 18.4 mph - N/A Rain Light Rain
4:20 PM 51.8 °F - 48.2 °F 88% 29.59 in 6.2 mi South 18.4 mph - N/A Rain Light Rain
4:50 PM 53.6 °F - 50.0 °F 88% 29.59 in 6.2 mi South 18.4 mph - N/A Rain Light Rain
5:20 PM 53.6 °F - 50.0 °F 88% 29.59 in 6.2 mi SSW 17.3 mph - N/A Rain Light Rain
5:50 PM 51.8 °F - 46.4 °F 82% 29.62 in 6.2 mi West 12.7 mph - N/A Rain Light Rain
6:20 PM 50.0 °F - 46.4 °F 87% 29.65 in 6.2 mi WSW 13.8 mph - N/A   Scattered Clouds
6:50 PM 50.0 °F - 46.4 °F 87% 29.65 in 6.2 mi WSW 13.8 mph - N/A   Partly Cloudy
7:20 PM 48.2 °F - 44.6 °F 87% 29.68 in - SW 16.1 mph - N/A   Clear
7:50 PM 48.2 °F - 44.6 °F 87% 29.68 in - SW 12.7 mph - N/A   Clear
8:20 PM 46.4 °F 40.4 °F 44.6 °F 93% 29.71 in - WSW 13.8 mph - N/A   Clear
8:50 PM 46.4 °F 40.7 °F 44.6 °F 93% 29.74 in 6.2 mi WSW 12.7 mph - N/A   Partly Cloudy
9:20 PM 46.4 °F 40.7 °F 42.8 °F 87% 29.74 in 6.2 mi WSW 12.7 mph - N/A   Partly Cloudy
9:50 PM 46.4 °F 41.5 °F 42.8 °F 87% 29.74 in - WSW 10.4 mph - N/A   Clear
10:20 PM 44.6 °F 39.7 °F 41.0 °F 87% 29.77 in - WSW 9.2 mph - N/A   Clear
10:50 PM 46.4 °F 41.1 °F 42.8 °F 87% 29.77 in - SW 11.5 mph - N/A   Clear
11:20 PM 46.4 °F 40.7 °F 42.8 °F 87% 29.80 in 6.2 mi SW 12.7 mph - N/A   Partly Cloudy
11:50 PM 46.4 °F 40.4 °F 42.8 °F 87% 29.80 in 6.2 mi SW 13.8 mph - N/A   Partly Cloudy